Home   Weather   Churu   Past weeks

Flag for India Past Weather in Churu, Rajasthan, India — Yesterday and Last 2 Weeks

Now
93 °F

Scattered clouds.


Feels Like: 89 °F
Forecast: 74 / 99 °F
Wind: 9 mph from West

Location: Jaipur / Sanganer

Current Time: Apr 29, 2017 at 1:34:02 pm

Latest Report: Apr 29, 2017 at 12:30 pm


Visibility: 2 mi

Pressure: 29.83 "Hg

Humidity: 17%

Dew Point: 43 °F

Location of ChuruLocation

Past Weather in Churu — Graph

°F

Churu Temperature Yesterday

Maximum temperature yesterday: 104 °F (at 3:30 pm)
Minimum temperature yesterday: 77 °F (at 5:30 am)
Average temperature yesterday: 91 °F

High & Low Weather Summary for the Past Weeks

 TemperatureHumidityPressure
High109 °F (Apr 16, 4:00 pm)61% (Apr 26, 6:00 am)29.95 "Hg (Apr 26, 6:00 am)
Low72 °F (Apr 26, 5:30 am)3% (Apr 15, 5:30 pm)29.56 "Hg (Apr 20, 4:00 pm)
Average93 °F18%29.74 "Hg
* Reported Apr 14 11:30 am — Apr 29 11:30 am, Churu, Weather by CustomWeather, © 2017

Note: Actual official high and low records may vary slightly from our data, if they occured in-between our weather recording intervals... More about our weather records

Advertising

Churu Weather History for the Previous 24 Hours

Scroll right to see more
 ConditionsComfort  
Time TempWeatherWind HumidityBarometerVisibility
11:30 am
Sat, Apr 29
90 °FBroken clouds.14 mph21%29.86 "Hg2 mi
11:00 am93 °FBroken clouds.15 mph17%29.86 "Hg2 mi
10:30 am93 °FBroken clouds.16 mph19%29.86 "Hg2 mi
10:00 am93 °FBroken clouds.12 mph17%29.86 "Hg2 mi
9:30 am93 °FHaze.7 mph17%29.83 "Hg2 mi
9:00 am90 °FHaze.9 mph21%29.83 "Hg2 mi
8:35 am88 °FHaze.15 mph22%29.83 "Hg2 mi
7:30 am84 °FHaze.6 mph27%29.80 "Hg2 mi
7:00 am82 °FHaze.6 mph28%29.80 "Hg2 mi
6:30 am81 °FHaze.7 mph30%29.77 "Hg2 mi
6:00 am81 °FHaze.6 mph30%29.77 "Hg2 mi
5:30 am81 °FHaze.8 mph30%29.77 "Hg2 mi
5:00 am81 °FPassing clouds.9 mph30%29.77 "Hg2 mi
4:30 am82 °FPleasantly warm.9 mph28%29.77 "HgN/A
4:00 am84 °FHaze.12 mph27%29.77 "Hg1 mi
3:30 am84 °FHaze.12 mph23%29.80 "Hg2 mi
3:00 am84 °FPleasantly warm.13 mph22%29.77 "HgN/A
2:00 am84 °FHaze.1 mph23%29.74 "Hg2 mi
1:00 am86 °FHaze.2 mph22%29.77 "Hg2 mi
12:30 am88 °FHaze.5 mph19%29.77 "Hg2 mi
12:00 am88 °FHaze.1 mph18%29.77 "Hg2 mi
11:30 pm
Fri, Apr 28
90 °FHaze.5 mph17%29.77 "Hg2 mi
11:00 pm91 °FHaze.6 mph15%29.77 "Hg2 mi
10:30 pm91 °FHaze.7 mph15%29.77 "Hg2 mi
10:00 pm93 °FHaze.6 mph13%29.77 "Hg2 mi
9:30 pm91 °FHaze.3 mph13%29.77 "Hg3 mi
9:00 pm91 °FHaze.5 mph13%29.74 "Hg3 mi
8:30 pm95 °FPassing clouds.6 mph11%29.74 "Hg3 mi
8:00 pm93 °FPassing clouds.7 mph19%29.74 "Hg3 mi
7:30 pm97 °FPassing clouds.3 mph12%29.71 "Hg3 mi
7:00 pm99 °FScattered clouds.3 mph10%29.71 "Hg3 mi
6:30 pm99 °FScattered clouds.10 mph10%29.71 "Hg3 mi
6:00 pm100 °FScattered clouds.8 mph8%29.68 "Hg3 mi
5:30 pm100 °FScattered clouds.8 mph8%29.68 "Hg3 mi
5:00 pm102 °FScattered clouds.8 mph9%29.68 "Hg3 mi
4:30 pm102 °FScattered clouds.16 mph8%29.68 "Hg4 mi
4:00 pm102 °FScattered clouds.13 mph9%N/A4 mi
3:30 pm104 °FScattered clouds.12 mph9%29.71 "Hg4 mi
3:00 pm102 °FScattered clouds.10 mph9%29.74 "Hg4 mi
2:30 pm102 °FScattered clouds.15 mph9%29.74 "Hg4 mi
2:00 pm102 °FScattered clouds.15 mph11%29.77 "Hg3 mi
1:00 pm100 °FScattered clouds.14 mph12%29.80 "Hg3 mi
Weather by CustomWeather, © 2017

See weather overviewHow to use our weather pages